Powrót do katalogu

QIANFAN-211

AktywnyŁącznośćPO
NORAD 69810·PAYLOAD·🇨🇳 China

Wystrzelony Jul 4, 2026 z Taiyuan Satellite Launch Center

Loading…

Następne Przeloty (najbliższe 24 godziny)

TLE

ŚwieżeSource: Space-Track

Epoka: Sep 14, 2026, 21:58 UTC

1 69810U 26153L   26257.91555489  .00000318  00000-0  15868-3 0  9992
2 69810  88.9981 352.0512 0007379   4.6510 355.4745 14.14538698 10282

Śledź QIANFAN-211 w czasie rzeczywistym z AllMySat

Download on the App Store